Other Public Products
Issued by NWS Grand Forks, ND

Home | Current Version | Previous Version | Text Only | Print | Product List | Glossary Off
Versions: 1 2 3 4 5 6 7 8 9 10 11 12 13 14 15 16 17 18 19 20 21 22 23 24 25 26 27 28 29 30 31 32 33 34 35 36 37 38 39 40 41 42 43 44 45 46 47 48 49 50

000
FPUS83 KFGF 020931
OPUFGF
PRAIRIE TO PINES WEATHER ROUNDUP
NATIONAL WEATHER SERVICE EASTERN NORTH DAKOTA/GRAND FORKS ND
400 AM CDT THU OCT 02 2014

 **SATELLITE DATA USED TO AUGMENT SKY COVER AT AUTOMATED STATIONS**
 *****  WEATHER ACROSS EASTERN NORTH DAKOTA  *****

CITY           SKY/WX    TMP DP  RH WIND       PRES   REMARKS
GRAND FORKS    CLEAR     48  45  89 SW6       29.79S
GRAND FORKS AF CLEAR     46  46  99 SW6       29.81R
GRAND CITY NWS   N/A     46 N/A N/A W3          N/A
BUXTON           N/A     47  47  99 W6          N/A
DEVILS LAKE    MOCLDY    50  43  76 W9        29.79S
FARGO          PTCLDY    49  46  90 W9        29.82S
WAHPETON ARPT  PTSUNNY   46  43  87 W3        29.85R
$$

 *****  WEATHER ACROSS CENTRAL AND WESTERN NORTH DAKOTA  *****

CITY           SKY/WX    TMP DP  RH WIND       PRES   REMARKS
JAMESTOWN      MOCLDY    48  45  89 W8        29.83F
BISMARCK       MOCLDY    45  43  93 W3        29.88F
MINOT          CLEAR     46  42  86 SW9       29.81F
MINOT AFB      CLEAR     44  44  99 W8        29.81S
GARRISON         N/A     45  43  93 W8        29.85R
WILLISTON      MOCLDY    43  40  89 SW6       29.85S
DICKINSON      CLEAR     41  37  86 W7        29.89S
HETTINGER      CLEAR     38  34  85 CALM      29.94S
$$

 *****  OTHER OBSERVATIONS NORTHEAST NORTH DAKOTA  *****

CITY           SKY/WX    TMP DP  RH WIND       PRES   REMARKS
WALHALLA         N/A     48  48 100 W6        29.77S
LANGDON        FAIR      45  45 100 W9        29.78S
CAVALIER       FAIR      48  46  93 W7        29.77S
GRAFTON        FAIR      46  46 100 SW7       29.79R
CANDO          FAIR      41  39  93 W6        29.81S
FORT TOTTEN      N/A     48  45  90 W3        29.95
ROLLA          FAIR      41  41 100 SW8       29.80S
RUGBY          FAIR      41  41 100 W6        29.82R
 ***** THE ABOVE OBSERVATIONS ARE NON NWS ARE NOT QUALITY
        CONTROLLED AND MAY MIS-REPORT RAIN FOR SNOW...
$$

 *****  OTHER OBSERVATIONS SOUTHEAST NORTH DAKOTA *****

CITY           SKY/WX    TMP DP  RH WIND       PRES   REMARKS
COOPERSTOWN    NOT AVBL
VALLEY CITY    FAIR      48  48 100 W9        29.84S
OAKES            N/A     48  48 100 W5        29.87R
GWINNER          N/A     50  50 100 SW6       29.87S
BUFFALO          N/A     45  43  92 W6          N/A
WYNDMERE         N/A     48  46  93 SW3         N/A
 ***** THE ABOVE OBSERVATIONS ARE NON NWS ARE NOT QUALITY
       CONTROLLED AND MAY MIS-REPORT RAIN FOR SNOW...
$$

  *****  WEATHER ACROSS NORTHERN MINNESOTA  *****

CITY           SKY/WX    TMP DP  RH WIND       PRES   REMARKS
FLAG ISLAND    PTCLDY    52  50  93 SW8       29.73S
WARROAD        PTCLDY    52  48  87 SW7       29.76S
ROSEAU         PTCLDY    52  46  82 W5        29.76S
HALLOCK        PTCLDY    46  45  93 CALM      29.76S
THF RVR FALLS  PTCLDY    52  46  82 W6        29.79S
HALSTAD          N/A     47  45  91 W6          N/A
FOSSTON        MOCLDY    50  48  93 CALM      29.80S
BAUDETTE       CLOUDY    52  50  93 SW5       29.76R
WASKISH        CLOUDY    55  54  94 CALM      29.77F
CROOKSTON      CLEAR     48  46  93 W6        29.81R
$$
  *****  WEATHER ACROSS CENTRAL AND WEST MINNESOTA  *****

CITY           SKY/WX    TMP DP  RH WIND       PRES   REMARKS
BEMIDJI        CLOUDY    52  49  90 W3        29.78F
PARK RAPIDS    MOCLDY    50  49  96 CALM      29.80F
WADENA         CLOUDY    48  48 100 W5        29.81R
DETROIT LAKES  CLEAR     52  50  93 W7        29.83R
MOORHEAD       NOT AVBL
FERGUS FALLS   MOCLDY    48  46  93 W7        29.86R
ELBOW LAKE     FAIR      45  45  99 W3        29.85R
MORRIS MN      PTCLDY    46  45  93 NW3       29.84S
STAPLES        FOG       43  43 100 CALM      29.82S VSB 1/2
WHEATON        MOCLDY    50  46  87 W7        29.87S
$$
  *****  WEATHER ELSEWHERE ACROSS MINNESOTA  *****

CITY           SKY/WX    TMP DP  RH WIND       PRES   REMARKS
DULUTH         DRIZZLE   52  50  93 W6        29.82F FOG
INTRNTL FALLS  MOCLDY    52  51  97 SW6       29.76R
ELY            CLOUDY    52  50  93 W6        29.81R FOG
CLOQUET        CLOUDY    52  52 100 SW5       29.83F FOG
BRAINERD       CLOUDY    51  51 100 SW3       29.82S FOG
HIBBING        CLOUDY    54  52  93 SW3       29.81S
ALEXANDRIA     CLEAR     50  47  89 W8        29.84S
SAINT CLOUD    FOG       56  54  93 CALM      29.82F VSB 1/2
MINNEAPOLIS    CLOUDY    57  56  96 CALM      29.83F FOG
$$

  *****  WEATHER ACROSS SOUTH DAKOTA  *****

CITY           SKY/WX    TMP DP  RH WIND       PRES   REMARKS
SIOUX FALLS    MOCLDY    54  48  80 N9        29.84F
BROOKINGS      NOT AVBL
WATERTOWN      MOCLDY    50  48  93 NW7       29.87R
HURON          CLOUDY    49  47  93 W3        29.90S
SISSETON         N/A     52  49  89 NW7       29.85R
ABERDEEN       CLOUDY    47  45  93 SW3       29.88S
MITCHELL       CLOUDY    54  48  80 NW8       29.90S
PIERRE         CLOUDY    51  48  89 W6        29.92R
MOBRIDGE       CLOUDY    49  45  86 NW6       29.89S
RAPID CITY     CLEAR     40  36  86 NW5       29.99S
$$

  *****  SOME WEATHER IN NEARBY STATES *****

CITY           SKY/WX    TMP DP  RH WIND       PRES   REMARKS
GLASGOW MT     PTCLDY    46  36  68 W12       29.83S
GREAT FALLS MT PTCLDY    41  31  67 SW12      29.96R
CHEYENNE WY    MOCLDY    38  33  82 NW9       30.09S
SCOTTSBLUFF NE PTCLDY    40  39  97 NW6       30.06F
OMAHA NE       FOG       64  63  96 SE5       29.77R VSB 1/4
DES MOINES IA  FOG       65  63  93 E6        29.77F VSB 1/2
DAVENPORT IA   NOT AVBL
CHICAGO IL     CLOUDY    63  56  78 SE6       29.86F
EAU CLAIRE WI  CLOUDY    56  54  93 CALM      29.83S FOG
LA CROSSE WI   CLOUDY    60  57  89 CALM      29.82S
$$

  *****  SOME NATIONAL WEATHER *****

CITY           SKY/WX    TMP DP  RH WIND       PRES   REMARKS
LA GUARDIA NY  CLOUDY    61  55  81 NE13      30.09R
RALEIGH NC     MOCLDY    60  58  92 CALM      30.08R FOG
ATLANTA GA     CLEAR     66  62  87 CALM      30.05S
NEW ORLEANS LA PTCLDY    76  75  97 SE5       29.93S
OKLAHOMA CITY  MOCLDY    73  67  81 S12       29.70F
ALBUQUERQUE NM PTCLDY    58  36  43 N8        30.05R
SALT LAKE CITY CLEAR     42  36  79 SE8       30.22R
LOS ANGELES CA CLEAR     66  63  90 VRB3      29.89R
BOISE ID       CLEAR     48  35  60 SE9       30.16S
SEATTLE WA     CLOUDY    57  45  64 E6        30.23R
$$

*** WEATHER ACROSS MANITOBA...SASKATCHEWAN AND ONTARIO ***
                ***ONTARIO***

CITY           SKY/WX    TMP DP  RH WIND       PRES   REMARKS
GERALDTON      CLOUDY    52  50  93 SW9       29.79F
THUNDER BAY    CLOUDY    50  50 100 VRB2      29.80F FOG
SIOUX LOOKOUT  CLOUDY    54  52  94 SW9       29.70R
TORONTO        CLOUDY    59  57  94 E7        30.08S
BIG TROUT LK   CLOUDY    54  50  87 S13G21    29.45S
PICKLE LAKE    NOT AVBL
DRYDEN         CLOUDY    54  52  94 SW12      29.70S
KENORA         CLOUDY    52  48  87 W9        29.73R
$$
                *** MANITOBA***

CITY           SKY/WX    TMP DP  RH WIND       PRES   REMARKS
BRANDON        PTCLDY    41  39  93 W7        29.77R
DAUPHIN        CLEAR     43  39  87 W7        29.71R
ISLAND LAKE    CLOUDY    50  48  93 W15G22    29.47R
PILOT MOUND      N/A     41  39  93 SW6         N/A
THE PAS        CLEAR     39  37  93 W6        29.62S
THOMPSON       CLOUDY    45  45 100 W12       29.45R
WINNIPEG       MOCLDY    50  45  81 SW9       29.73S
LYNN LAKE      CLOUDY    41  39  93 NW12G20   29.52R
CHURCHILL      FOG       41  41 100 NW5       29.24S VSB 1/4
GILLAM         LGT RAIN  46  46 100 W14G21    29.31R
$$
                ***SASKATCHEWAN***

CITY           SKY/WX    TMP DP  RH WIND       PRES   REMARKS
ESTEVAN        MOCLDY    39  37  93 SW7       29.80S
KINDERSLEY     CLOUDY    37  34  87 NW13G20   29.85S
LLOYDMINSTER   CLOUDY    36  30  80 W21G29    29.83R
PRINCE ALBERT  PTCLDY    39  34  81 W8        29.68F
REGINA         LGT RAIN  46  39  76 W12       29.77R
YORKTON        CLEAR     41  37  87 SW10      29.71S



USA.gov is the U.S. government's official web portal to all federal, state and local government web resources and services.